Regional Weather Roundup
Issued by NWS

Home | Current Version | Previous Version | Text Only | Print | Product List | Glossary On
Versions: 1 2 3 4 5 6 7 8 9 10 11 12 13 14 15 16 17 18 19 20 21 22 23 24 25 26 27 28 29 30 31 32 33 34 35 36 37 38 39 40 41 42 43 44 45 46 47 48 49 50
171
ASCA42 TJSJ 291910
RWRPR
PUERTO RICO/U.S. VIRGIN ISLANDS HOURLY WEATHER ROUNDUP
NATIONAL WEATHER SERVICE SAN JUAN PR
300 PM AST WED MAR 29 2017

PRZ001>002-007>008-010-292000-
PUERTO RICO

CITY           SKY/WX    TMP DP  RH WIND       PRES   REMARKS
SAN JUAN LMM   PTSUNNY   81  73  78 N9        29.92F
AGUADILLA      MOSUNNY   82  72  69 NE12      29.95F
CEIBA          CLOUDY    81  72  74 N14       29.94S
$$

VIZ001>002-292000-
U.S. VIRGIN ISLANDS

CITY           SKY/WX    TMP DP  RH WIND       PRES   REMARKS
CHARLOTTE AMA  SUNNY     82  73  74 N18       29.90F
CHRISTIANSTED  MOSUNNY   81  73  78 S3        29.92F
$$

HOURLY WEATHER ROUNDUP FOR THE NEWS MEDIA

CITY           SKY/WX    TMP DP  RH WIND       PRES   REMARKS
ORLANDO        PTSUNNY   86  58  38 VRB3      30.00F
NEW YORK       MOSUNNY   60  33  36 N16G25    30.03F
NEWARK         MOSUNNY   60  30  32 N20G28    30.04F
CHICAGO        CLOUDY    45  35  68 NE12      30.21F
HARTFORD       CLOUDY    47  36  65 N10       30.00F
BOSTON         CLOUDY    46  31  55 NW15G24   30.02S
DALLAS         MOSUNNY   78  50  37 S15G25    29.72S
PHILADELPHIA   SUNNY     60  33  36 N14G25    30.08S
LOS ANGELES    MOSUNNY   73  47  39 W8        30.05S
WASHINGTON DC  MOSUNNY   62  37  39 N10       30.10F



USA.gov is the U.S. government's official web portal to all federal, state and local government web resources and services.